Main page
METAR-TAF:

METAR-TAF

Airports :

Semnan, Iran

latitude: 35-33N, longitude: 053-23E, elevation: 1171 m

Current weather observation

The report was made 19 minutes ago, at 01:00 UTC
Calm wind
Temperature 7°C
Humidity 49%
Pressure 1021 hPa
Visibility 10 km or more
Few clouds at a height of 3500 ft
Scattered clouds at a height of 20000 ft

METAR: OIIS 150100Z 00000KT 9999 FEW035 SCT200 07/M03 Q1021

Time: 04:49 (01:19 UTC)


TAF: missing

Weather observations and forecasts of more than 4000 airports (METAR and TAF reports).

The available stations are represented by yellow and red dots on the map.

Hover mouse over dot to see the name of the station.

Then click to see weather observations and forecasts.

To change the map : click on the green buttons with a black cross to zoom in, on the green button with a dash to zoom out, or on the green arrows for adjacent maps.


METAR-TAF: